Simultaneous Nadir Overpasses (SNOs) Predictions

Prediction of SNOs between METOP-B and NOAA-19 Satellite Orbit:

Table of predicted SNOs for the next 14.0 days since TLE Epoch: 5/9/2020
Index Date (METOP-B) Time (METOP-B) Lat,Lon (METOP-B) SZA (METOP-B ) Date (NOAA-19) Time (NOAA-19) Lat,Lon (NOAA-19) SZA (NOAA-19 ) Distance(km) Time Diff (sec)
1 05/19/2020 15:15:57 79.99, -26.80 60.85 05/19/2020 15:14:49 79.97, -26.87 60.80 2.65 68
2 05/19/2020 16:06:39 -79.98, 140.35 119.19 05/19/2020 16:05:44 -79.97, 140.42 119.21 1.36 55
3 05/19/2020 16:57:19 79.98, -52.26 60.81 05/19/2020 16:56:49 79.96, -52.17 60.79 3.03 30
4 05/19/2020 17:48:01 -79.96, 114.89 119.23 05/19/2020 17:47:45 -79.98, 114.80 119.22 2.60 16
5 05/19/2020 18:38:41 79.97, -77.73 60.78 05/19/2020 18:38:50 79.97, -77.79 60.77 1.36 9
6 05/19/2020 19:29:23 -79.95, 89.43 119.26 05/19/2020 19:29:45 -79.97, 89.49 119.24 2.16 22
7 05/19/2020 20:20:03 79.96,-103.19 60.74 05/19/2020 20:20:50 79.95,-103.10 60.76 1.70 47




NCC Satellite Simultaneous Nadir Overpasses (SNOs) Prediction Service
